Preview of NWS' New Version of Forecast
This preview is not operational and should not be used for support decisions.

Regional Weather Roundup (RWR)

Issued by National Weather Service (NWS)

                            
000
ASUS45 KBOU 180510
RWRCO 

WEATHER ROUNDUP FOR COLORADO
NATIONAL WEATHER SERVICE DENVER/BOULDER CO
1100 PM MDT WED APR 17 2019

NOTE: "FAIR" INDICATES FEW OR NO CLOUDS BELOW 12000 FEET WITH NO
SIGNIFICANT WEATHER AND/OR OBSTRUCTIONS TO VISIBILITY.

COZ001>005-013-030-031-180600-
...NORTHWEST COLORADO...
  
CITY           SKY/WX    TMP DP  RH WIND       PRES   REMARKS
CRAIG          MOCLDY    45  30  55 W14       30.20R                  
HAYDEN         CLOUDY    44  27  51 W17       30.20R                  
MEEKER         FAIR      45  26  47 VRB7      30.20R                  
RANGELY        FAIR      46  28  49 S6        30.18R                  
RABBIT EARS PA SNOW      27  27 100 W17G31    30.18F VSB 1/2 WCI  14  
STEAMBOAT SPGS CLOUDY    40  30  67 W5        30.19R                  
WALDEN         CLOUDY    37  25  60 W12       30.18R                  
$$

COZ006>008-011-180600-
...WEST CENTRAL VALLEYS...
  
CITY           SKY/WX    TMP DP  RH WIND       PRES   REMARKS
GRAND JUNCTION FAIR      52  26  36 N12       30.12R                  
MONTROSE       FAIR      49  22  34 CALM      30.15R                  
EAGLE          FAIR      40  23  50 E8        30.17R                  
RIFLE          FAIR      50  26  39 NW8       30.16R                  
DELTA          FAIR      58  23  25 N7        30.11R                  
NUCLA          FAIR      48  19  32 NW6       30.17S                  
$$

COZ017>023-064>068-180600-
...SOUTHWEST COLORADO...
  
CITY           SKY/WX    TMP DP  RH WIND       PRES   REMARKS
DURANGO        FAIR      50  21  32 NW15      30.04R                  
CORTEZ         FAIR      47  27  45 NE6       30.12R                  
PAGOSA SPRINGS FAIR      45  22  40 CALM      30.09R                  
TELLURIDE      FAIR      37  23  56 CALM      30.24R                  
WOLF CREEK PAS FAIR      27  18  69 NW9G17    30.26S WCI  17          
$$

COZ009-010-012-014-032>034-037-058>063-180600-
...CENTRAL COLORADO...
  
CITY           SKY/WX    TMP DP  RH WIND       PRES   REMARKS
ASPEN          FAIR      39  20  46 NW5       30.16S                  
BUENA VISTA    FAIR      42  17  36 NW14G22   30.11S                  
COPPER MTN     MOCLDY    28  18  64 NW18G31   30.24S WCI  16          
BERTHOUD PASS  CLOUDY    19  10  68 NW33G43   30.19R WCI   0          
COTTONWOOD PAS FAIR      37  14  38 W15G25    30.16F                  
GUNNISON       FAIR      40  22  48 W3        30.15R                  
GRANBY         CLOUDY    40  23  51 W14       30.17R                  
KREMMLING      CLOUDY    41  27  56 W5        30.18R                  
LEADVILLE      MOCLDY    30  19  63 NW5       30.19S WCI  25          
MONARCH PASS   MOCLDY    28  14  54 NW23G30   30.33F WCI  14          
SALIDA         FAIR      47  17  30 NW6       30.16R                  
SUNLIGHT       MOCLDY    28  19  69 W15G26    30.28F WCI  17          
WILKERSON PASS MOCLDY    28  16  59 N6G23     30.21S WCI  22          
$$

COZ069>075-180600-
...SAN LUIS VALLEY/SANGRE DE CRISTO MOUNTAINS...
  
CITY           SKY/WX    TMP DP  RH WIND       PRES   REMARKS
ALAMOSA        FAIR      37  29  72 W3        30.06R                  
DEL NORTE      FAIR      46  19  33 NW8       30.10R                  
LA VETA PASS   NOT AVBL                                               
SAGUACHE       FAIR      45  19  36 NW5G20    30.09R                  
$$

COZ035-036-038>040-180600-
...NORTHERN COLORADO FRONT RANGE...
  
CITY           SKY/WX    TMP DP  RH WIND       PRES   REMARKS
DENVER INTL AP MOCLDY    46  38  73 SW7       30.05F                  
AURORA         MOCLDY    47  40  78 W7        30.05R                  
FRONT RANGE AP LGT RAIN  47  39  73 NW3G22    30.05F                  
ERIE MUNI ARPT FAIR      49  34  55 SE7       30.08R                  
BOULDER MUN AP FAIR      50  32  50 SE6       30.03R                  
CENTENNIAL     MOCLDY    47  34  60 E13G24    30.05R                  
BROOMFIELD     FAIR      46  34  61 E10       30.05R                  
FORT COLLINS   CLOUDY    48  34  58 NE21G26   30.03R                  
LONGMONT       FAIR      52  33  47 E17       30.06R                  
$$

COZ041-046-047-076>085-087-088-180600-
...PIKES PEAK/PALMER DIVIDE AND SOUTHERN FOOTHILLS...
  
CITY           SKY/WX    TMP DP  RH WIND       PRES   REMARKS
COLO. SPRINGS  FAIR      45  34  65 N7        30.02R                  
A. F. ACADEMY  CLOUDY    41  33  72 N9        30.01S                  
SCHRIEVER AFB  NOT AVBL                                               
CHEYENNE MTN   MOCLDY    47  34  59 NW9       29.99R                  
ELLICOTT         N/A    N/A N/A N/A E13       30.01R                  
FALCON         NOT AVBL                                               
FORT CARSON    MOCLDY    46  39  79 N3        30.01R                  
LIMON          CLOUDY    44  31  60 N7        30.01R                  
MONUMENT HILL  MOCLDY    37  32  81 NE7       30.08R                  
CANON CITY     NOT AVBL                                               
WALSENBURG     NOT AVBL                                               
TRINIDAD       FAIR      42  37  82 W12       29.98S                  
$$

COZ042>045-048>051-090-091-180600-
...NORTHEAST COLORADO...
  
CITY           SKY/WX    TMP DP  RH WIND       PRES   REMARKS
GREELEY ARPT   MOCLDY    46  35  65 N26G35    30.05R                  
AKRON          CLOUDY    48  30  49 N20G28    30.02R                  
BURLINGTON     FAIR      46  29  51 N8        29.94R                  
WRAY           MOCLDY    43  32  65 N8        29.95S                  
YUMA           NOT AVBL                                               
STERLING       LGT RAIN  45  39  81 N30G40    30.02R                  
HOLYOKE        MOCLDY    46  32  57 N9        29.97R                  
FORT MORGAN      N/A     47  34  59 N31G37    30.05R                  
$$

COZ086-089-092>099-180600-
...SOUTHEAST COLORADO...
  
CITY           SKY/WX    TMP DP  RH WIND       PRES   REMARKS
PUEBLO         CLOUDY    50  38  63 E3        29.95S                  
LA JUNTA       FAIR      50  38  63 NW9       29.94R                  
LAMAR          FAIR      45  32  60 NE6       29.90R                  
SPRINGFIELD      N/A     43  33  68 N12       29.90F                  
$$